Weather History for Rock Hill, SC

Change the Weather History Date:

Sunday, November 25, 2012

  Actual Average Record
Temperature  
Mean Temperature 38 °F -  
Max Temperature 53 °F 60 °F 75 °F (2001)
Min Temperature 23 °F 38 °F 14 °F (1950)
Degree Days  
Heating Degree Days 27    
Moisture  
Dew Point 22 °F    
Average Humidity 59    
Maximum Humidity 88    
Minimum Humidity 27    
Precipitation  
Precipitation 0.00 in - - ()
Sea Level Pressure  
Sea Level Pressure 30.14 in    
Wind  
Wind Speed 3 mph (SSW)    
Max Wind Speed 10 mph    
Max Gust Speed 16 mph    
Visibility 10 miles    
Events      
Averages and records for this station are not official NWS values.
T = Trace of Precipitation, MM = Missing Value Source: NWS Daily Summary

Daily Weather History Graph

Daily Weather History Graph

Search for Another Location

Airport:

Trip Planner

Search our weather history database for the weather conditions in past years. The results will help you decide how hot, cold, wet, or windy it might be!

Date:

Astronomy

Nov. 25, 2012 Rise Set
Actual Time 7:08 AM EST 5:13 PM EST
Civil Twilight 6:41 AM EST 5:41 PM EST
Nautical Twilight 6:10 AM EST 6:12 PM EST
Astronomical Twilight 5:39 AM EST 6:42 PM EST
Moon 3:26 PM EST (11/25) 4:25 AM EST (11/25)
Length of Visible Light 10h 59m
Length of Day
10h 05m
Waxing Gibbous, 93% of the Moon is Illuminated
Nov 25
Waxing Gibbous
Nov 28
Full
Dec 6
Last Quarter
Dec 13
New
Dec 20
First Quarter

Hourly Weather History & Observations

Time (EST) Temp. Windchill Dew Point Humidity Pressure Visibility Wind Dir Wind Speed Gust Speed Precip Events Conditions
12:54 AM 28.9 °F - 21.9 °F 75% 30.12 in 10.0 mi Calm Calm - N/A   Clear
1:54 AM 28.0 °F - 21.0 °F 75% 30.14 in 10.0 mi Calm Calm - N/A   Clear
2:54 AM 24.1 °F 19.7 °F 19.0 °F 81% 30.15 in 10.0 mi SSW 3.5 mph - N/A   Clear
3:54 AM 26.1 °F - 19.9 °F 78% 30.16 in 10.0 mi Calm Calm - N/A   Clear
4:54 AM 23.0 °F - 19.0 °F 85% 30.16 in 10.0 mi Calm Calm - N/A   Clear
5:54 AM 24.1 °F - 19.9 °F 84% 30.17 in 10.0 mi Calm Calm - N/A   Clear
6:54 AM 23.0 °F - 19.9 °F 88% 30.19 in 10.0 mi Calm Calm - N/A   Clear
7:54 AM 27.0 °F - 21.9 °F 81% 30.21 in 10.0 mi Calm Calm - N/A   Clear
8:54 AM 34.0 °F 27.2 °F 23.0 °F 64% 30.24 in 10.0 mi SSW 8.1 mph - N/A   Clear
9:54 AM 37.9 °F 32.7 °F 21.9 °F 53% 30.21 in 10.0 mi SSW 6.9 mph - N/A   Clear
10:54 AM 42.1 °F 38.4 °F 21.9 °F 45% 30.19 in 10.0 mi SSW 5.8 mph - N/A   Clear
11:54 AM 46.0 °F 43.9 °F 21.9 °F 39% 30.16 in 10.0 mi Variable 4.6 mph - N/A   Clear
12:54 PM 50.0 °F - 19.9 °F 31% 30.12 in 10.0 mi SW 10.4 mph - N/A   Clear
1:54 PM 52.0 °F - 19.9 °F 28% 30.10 in 10.0 mi SSW 10.4 mph 16.1 mph N/A   Clear
2:54 PM 53.1 °F - 19.9 °F 27% 30.07 in 10.0 mi SW 9.2 mph - N/A   Unknown
3:54 PM 53.1 °F - 19.9 °F 27% 30.07 in 10.0 mi SSW 10.4 mph - N/A   Clear
4:54 PM 50.0 °F - 21.9 °F 33% 30.08 in 10.0 mi SW 6.9 mph - N/A   Clear
5:54 PM 42.1 °F 39.2 °F 24.1 °F 49% 30.09 in 10.0 mi SSW 4.6 mph - N/A   Clear
6:54 PM 43.0 °F 40.3 °F 23.0 °F 45% 30.11 in 10.0 mi SSW 4.6 mph - N/A   Clear
7:54 PM 36.0 °F 33.3 °F 24.1 °F 62% 30.13 in 10.0 mi SSW 3.5 mph - N/A   Clear
8:54 PM 35.1 °F 29.3 °F 25.0 °F 67% 30.13 in 10.0 mi SSW 6.9 mph - N/A   Clear
9:54 PM 32.0 °F 26.4 °F 24.1 °F 73% 30.13 in 10.0 mi SW 5.8 mph - N/A   Clear
10:54 PM 33.1 °F 26.1 °F 24.1 °F 70% 30.12 in 10.0 mi SW 8.1 mph - N/A   Clear
11:54 PM 34.0 °F 28.0 °F 24.1 °F 67% 30.11 in 10.0 mi SW 6.9 mph - N/A   Clear